Home > Weather > Elizabeth > Past weeks

Flag for USA Past Weather in Elizabeth, New Jersey, USA — Yesterday and Last 2 Weeks

Now
83 °F

Light rain. Cloudy.


Feels Like: 87 °F
Forecast: 74 / 92 °F
Wind: 18 mph from Southwest

Location: Newark International Airport

Current Time: Jul 28, 2016 at 6:24:22 PM

Latest Report: Jul 28, 2016 at 5:51 PM


Visibility: 10 mi

Pressure: 29.87 "Hg

Humidity: 65%

Dew Point: 70 °F

Location of ElizabethLocation

Past Weather in Elizabeth — Graph

°F

Elizabeth Temperature Yesterday

Maximum temperature yesterday: 92 °F (at 3:51 PM)
Minimum temperature yesterday: 74 °F (at 4:51 AM)
Average temperature yesterday: 83 °F

High & Low Weather Summary for the Past Weeks

 TemperatureHumidityPressure
High97 °F (Jul 23, 2:51 PM)94% (Jul 25, 5:56 PM)30.23 "Hg (Jul 25, 5:56 PM)
Low66 °F (Jul 20, 5:51 AM)24% (Jul 24, 3:51 PM)29.78 "Hg (Jul 22, 6:51 PM)
Average83 °F57%29.97 "Hg
* Reported Jul 13 4:51 PM — Jul 28 4:51 PM, Elizabeth, Weather by CustomWeather, © 2016

Note: Actual official high and low records may vary slightly from our data, if they occured in-between our weather recording intervals... More about our weather records

Advertising

Elizabeth Weather History for the Previous 24 Hours

Scroll right to see more
 ConditionsComfort  
Time TempWeatherWind HumidityBarometerVisibility
4:51 PM
Thu, Jul 28
86 °FBroken clouds.10 mph57%29.84 "Hg10 mi
3:51 PM88 °FBroken clouds.15 mph54%29.84 "Hg10 mi
2:51 PM91 °FBroken clouds.14 mph44%29.84 "Hg10 mi
1:51 PM91 °FPartly sunny.5 mph39%29.85 "Hg10 mi
12:51 PM91 °FPartly sunny.3 mph41%29.88 "Hg10 mi
11:51 AM90 °FPartly sunny.3 mph37%29.88 "Hg10 mi
10:51 AM91 °FPartly sunny.3 mph37%29.90 "Hg10 mi
9:51 AM87 °FPartly sunny.3 mph53%29.91 "Hg10 mi
8:51 AM85 °FPartly sunny.3 mph61%29.91 "Hg10 mi
7:51 AM82 °FScattered clouds.No wind67%29.91 "Hg10 mi
6:51 AM78 °FPassing clouds.6 mph79%29.91 "Hg10 mi
5:51 AM75 °FPassing clouds.3 mph85%29.90 "Hg10 mi
4:51 AM77 °FPassing clouds.No wind82%29.90 "Hg10 mi
3:51 AM78 °FPassing clouds.3 mph82%29.89 "Hg10 mi
2:51 AM78 °FPassing clouds.7 mph82%29.90 "Hg10 mi
1:51 AM78 °FPassing clouds.6 mph79%29.90 "Hg10 mi
12:51 AM80 °FPassing clouds.6 mph74%29.90 "Hg10 mi
11:51 PM
Wed, Jul 27
81 °FPassing clouds.5 mph67%29.90 "Hg10 mi
10:51 PM82 °FPartly cloudy.7 mph63%29.90 "Hg10 mi
9:51 PM82 °FPartly cloudy.3 mph63%29.90 "Hg10 mi
8:51 PM83 °FScattered clouds.7 mph61%29.89 "Hg10 mi
7:51 PM86 °FScattered clouds.10 mph51%29.87 "Hg10 mi
6:51 PM88 °FScattered clouds.12 mph48%29.87 "Hg10 mi
Weather by CustomWeather, © 2016

See weather overviewHow to use our weather pages